sat.trackr.live / text

‹ back to catalog

STARLINK-30580

NORAD 58115 · 2023-161U

PAYLOAD ACTIVE UNKNOWN

§ Identity

Operator
Country
US
Launch date
2023-10-21
Launch site
AFWTR
Launch vehicle
Mass (kg)
RCS (m²)

Purposes: comms

External: N2YO · Heavens-Above · Gunter

§ Orbital elements

Epoch: 2026-09-20T22:19:03.283104Z

Period
93.85 min
Inclination
53.1614°
Eccentricity
0.0000819
Mean motion
15.34391008 rev/d
Perigee alt
462.2 km
Apogee alt
463.3 km
Semi-major
6,840.9 km
B*
7.6876e-5
RAAN
335.8168°
Arg perigee
60.6011°
Mean anomaly
299.5073°
Rev number
16,434

§ Raw data

STARLINK-305801 58115U 23161U   26263.92989911  .00002221  00000+0  76876-4 0  99942 58115  53.1614 335.8168 0000819  60.6011 299.5073 15.34391008164345

JSON: /api/v1/satellites/58115 · /tle

For live sub-satellite position, see the globe view (requires WebGL).

§ Visibility from observer

Set your observer location to see the next 7 days of passes ≥ 10°. The values pass through the URL so the page stays shareable.

No JS? Fill the form by hand. The geolocation button needs JavaScript.